ONEWEB-0380 (49306 NORAD) Tracking and Keplerian Element Data

This shows tracking and keplerian element data for the satellite.

Feedback or suggestion? Click here.




ElementValue
Catalog49306
NameONEWEB-0380
Epoch Orbit919
Epoch Day340.25001157
Epoch Year2021
RAAN276.2205
Inclination87.518
Eccentricity0.0009797
Argument of Perigee94.6209
Mean Anonmoly283.6075
Mean Motion14.40973651
Decay Rate-0.00929137
L11 49306U 21090AD 21340.25001157 -.00929137 00000+0 -30801+0 0 9998
L22 49306 87.5180 276.2205 0009797 94.6209 283.6075 14.40973651 9199

Live tracking and technical data element details for ONEWEB-0380 (NORAD 49306). ONEWEB-0380 can be tracked NOW for your location showing map with azimuth and elevation plus other details from your city location.

Track the satellite on the map from your city or location and see movement details for azimuth, elevation, latitude, longitude, range, height, and movement on the map or in text.







IsCatalogInMostPopularTable: catalog: 49306, numindb: 3
Update: records affected: 1



GetName: 49306 ONEWEB-0380

Hit Count: updated at: Mon, 06 Dec 2021 15:05:34 GMT